Location: Boiro
(42.6475°N, 8.8834°W)
Time: 18:54:51
(UTC+01:00)

Tiros 1 despin weight - Pass Details

Date: 03 December 2021
Orbit: 592 x 641 km, 48.2° (Epoch: 25 January)

Event Time Altitude Azimuth Distance (km) Brightness Sun altitude
Rises 19:27:29 0° 295° (WNW) 2,826 ? -15.2°
Reaches altitude 10° 19:29:47 10° 298° (WNW) 1,924 ? -15.6°
Maximum altitude 19:34:11 68° 21° (NNE) 641 ? -16.4°
Enters shadow 19:36:15 30° 97° (E) 1,074 ? -16.7°
